Location: Unspecified
(0.0000°N, 0.0000°E)
Time: 23:16:39
(UTC+00:00)

Tiangong - Pass Details

Date: 30 April 2025
Orbit: 377 x 386 km, 41.5° (Epoch: 16 May)

Event Time Altitude Azimuth Distance (km) Brightness Sun altitude
Rises 19:05:30 0° 277° (W) 2,225 3.5 -16.5°
Reaches altitude 10° 19:09:15 10° 230° (SW) 1,380 1.1 -17.4°
Maximum altitude 19:09:41 10° 223° (SW) 1,368 1.0 -17.5°
Drops below altitude 10° 19:10:07 10° 215° (SW) 1,381 0.9 -17.6°
Enters shadow 19:11:46 - 188° (S) 1,630 1.0 -18.0°
